Time,TemperatureF,DewpointF,PressureIn,WindDirection,WindDirectionDegrees,WindSpeedMPH,WindSpeedGustMPH,Humidity,HourlyPrecipIn,Conditions,Clouds,dailyrainin,SolarRadiationWatts/m^2,SoftwareType,DateUTC
2013-09-19 00:21:00,42.0,42.0,-100.00,SE,143,0.0,0.0,100,0.00,,,0.01,0.000000,,2013-09-19 08:21:00,
2013-09-19 00:32:00,42.0,42.0,-100.00,SE,143,0.0,0.0,100,0.00,,,0.01,0.000000,,2013-09-19 08:32:00,
2013-09-19 00:42:00,42.0,42.0,-100.00,SE,143,0.0,0.0,100,0.00,,,0.01,0.000000,,2013-09-19 08:42:00,
2013-09-19 00:52:00,42.0,42.0,-100.00,SE,143,0.0,0.0,100,0.00,,,0.01,0.000000,,2013-09-19 08:52:00,
2013-09-19 01:21:00,43.0,43.0,-100.00,SE,142,0.0,0.0,100,0.00,,,-99.99,0.000000,,2013-09-19 09:21:00,
2013-09-19 01:33:00,43.0,43.0,-100.00,SE,142,0.0,0.0,100,0.00,,,-99.99,0.000000,,2013-09-19 09:33:00,
2013-09-19 01:42:00,43.0,43.0,-100.00,SE,142,0.0,0.0,100,0.00,,,-99.99,0.000000,,2013-09-19 09:42:00,
2013-09-19 01:53:00,43.0,43.0,-100.00,SE,142,0.0,0.0,100,0.00,,,-99.99,0.000000,,2013-09-19 09:53:00,
2013-09-19 02:23:00,43.0,43.0,-100.00,SSE,154,0.0,0.0,100,0.00,,,0.00,0.000000,,2013-09-19 10:23:00,
2013-09-19 02:33:00,43.0,43.0,-100.00,SSE,154,0.0,0.0,100,0.00,,,0.00,0.000000,,2013-09-19 10:33:00,
2013-09-19 02:42:00,43.0,43.0,-100.00,SSE,154,0.0,0.0,100,0.00,,,0.00,0.000000,,2013-09-19 10:42:00,
2013-09-19 02:52:00,43.0,43.0,-100.00,SSE,154,0.0,0.0,100,0.00,,,0.00,0.000000,,2013-09-19 10:52:00,
2013-09-19 03:22:00,43.0,43.0,-100.00,SSE,154,0.0,0.0,100,0.00,,,-99.99,0.000000,,2013-09-19 11:22:00,
2013-09-19 03:33:00,43.0,43.0,-100.00,SSE,154,0.0,0.0,100,0.00,,,-99.99,0.000000,,2013-09-19 11:33:00,
2013-09-19 03:42:00,43.0,43.0,-100.00,SSE,154,0.0,0.0,100,0.00,,,-99.99,0.000000,,2013-09-19 11:42:00,
2013-09-19 03:52:00,43.0,43.0,-100.00,SSE,154,0.0,0.0,100,0.00,,,-99.99,0.000000,,2013-09-19 11:52:00,
2013-09-19 04:21:00,41.0,41.0,-100.00,ENE,76,0.0,0.0,100,0.00,,,0.00,0.000000,,2013-09-19 12:21:00,
2013-09-19 04:32:00,41.0,41.0,-100.00,ENE,76,0.0,0.0,100,0.00,,,0.00,0.000000,,2013-09-19 12:32:00,
2013-09-19 04:43:00,41.0,41.0,-100.00,ENE,76,0.0,0.0,100,0.00,,,0.00,0.000000,,2013-09-19 12:43:00,
2013-09-19 04:52:00,41.0,41.0,-100.00,ENE,76,0.0,0.0,100,0.00,,,0.00,0.000000,,2013-09-19 12:52:00,
2013-09-19 05:21:00,39.0,39.0,-100.00,North,0,0.0,0.0,100,0.00,,,0.00,0.000000,,2013-09-19 13:21:00,
2013-09-19 05:32:00,39.0,39.0,-100.00,North,0,0.0,0.0,100,0.00,,,0.00,0.000000,,2013-09-19 13:32:00,
2013-09-19 05:42:00,39.0,39.0,-100.00,North,0,0.0,0.0,100,0.00,,,0.00,0.000000,,2013-09-19 13:42:00,
2013-09-19 05:52:00,39.0,39.0,-100.00,North,0,0.0,0.0,100,0.00,,,0.00,0.000000,,2013-09-19 13:52:00,
2013-09-19 06:22:00,38.0,38.0,-100.00,North,356,0.0,0.0,100,0.00,,,0.00,0.000000,,2013-09-19 14:22:00,
2013-09-19 06:32:00,38.0,38.0,-100.00,North,356,0.0,0.0,100,0.00,,,0.00,0.000000,,2013-09-19 14:32:00,
2013-09-19 06:42:00,38.0,38.0,-100.00,North,356,0.0,0.0,100,0.00,,,0.00,0.000000,,2013-09-19 14:42:00,
2013-09-19 06:52:00,38.0,38.0,-100.00,North,356,0.0,0.0,100,0.00,,,0.00,0.000000,,2013-09-19 14:52:00,
2013-09-19 07:22:00,40.0,40.0,-100.00,North,356,0.0,2.0,100,0.00,,,0.00,0.000000,,2013-09-19 15:22:00,
2013-09-19 07:33:00,40.0,40.0,-100.00,North,356,0.0,2.0,100,0.00,,,0.00,0.000000,,2013-09-19 15:33:00,
2013-09-19 07:43:00,40.0,40.0,-100.00,North,356,0.0,2.0,100,0.00,,,0.00,0.000000,,2013-09-19 15:43:00,
2013-09-19 07:53:00,40.0,40.0,-100.00,North,356,0.0,2.0,100,0.00,,,0.00,0.000000,,2013-09-19 15:53:00,
2013-09-19 08:24:00,40.0,40.0,-100.00,NNW,340,0.0,1.0,100,0.00,,,0.00,2.000000,,2013-09-19 16:24:00,
2013-09-19 08:33:00,40.0,40.0,-100.00,NNW,340,0.0,1.0,100,0.00,,,0.00,2.000000,,2013-09-19 16:33:00,
2013-09-19 08:42:00,40.0,40.0,-100.00,NNW,340,0.0,1.0,100,0.00,,,0.00,2.000000,,2013-09-19 16:42:00,
2013-09-19 08:52:00,40.0,40.0,-100.00,NNW,340,0.0,1.0,100,0.00,,,0.00,2.000000,,2013-09-19 16:52:00,
2013-09-19 09:23:00,41.0,41.0,-100.00,North,357,0.0,1.0,100,0.00,,,0.00,10.000000,,2013-09-19 17:23:00,
2013-09-19 09:34:00,41.0,41.0,-100.00,North,357,0.0,1.0,100,0.00,,,0.00,10.000000,,2013-09-19 17:34:00,
2013-09-19 09:42:00,41.0,41.0,-100.00,North,357,0.0,1.0,100,0.00,,,0.00,10.000000,,2013-09-19 17:42:00,
2013-09-19 09:53:00,41.0,41.0,-100.00,North,357,0.0,1.0,100,0.00,,,0.00,10.000000,,2013-09-19 17:53:00,
2013-09-19 10:22:00,43.0,43.0,-100.00,NNE,12,0.0,1.0,100,0.00,,,0.00,38.000000,,2013-09-19 18:22:00,
2013-09-19 10:32:00,43.0,43.0,-100.00,NNE,12,0.0,1.0,100,0.00,,,0.00,38.000000,,2013-09-19 18:32:00,
2013-09-19 10:42:00,43.0,43.0,-100.00,NNE,12,0.0,1.0,100,0.00,,,0.00,38.000000,,2013-09-19 18:42:00,
2013-09-19 10:52:00,43.0,43.0,-100.00,NNE,12,0.0,1.0,100,0.00,,,0.00,38.000000,,2013-09-19 18:52:00,
2013-09-19 11:21:00,46.0,44.0,-100.00,NW,318,0.0,3.0,94,0.00,,,0.00,95.000000,,2013-09-19 19:21:00,
2013-09-19 11:32:00,46.0,44.0,-100.00,NW,318,0.0,3.0,94,0.00,,,0.00,95.000000,,2013-09-19 19:32:00,
2013-09-19 11:42:00,46.0,44.0,-100.00,NW,318,0.0,3.0,94,0.00,,,0.00,95.000000,,2013-09-19 19:42:00,
2013-09-19 11:52:00,46.0,44.0,-100.00,NW,318,0.0,3.0,94,0.00,,,0.00,95.000000,,2013-09-19 19:52:00,
2013-09-19 12:21:00,47.0,43.0,-100.00,SE,133,1.0,7.0,86,0.00,,,0.00,112.000000,,2013-09-19 20:21:00,
2013-09-19 12:32:00,47.0,43.0,-100.00,SE,133,1.0,7.0,86,0.00,,,0.00,112.000000,,2013-09-19 20:32:00,
2013-09-19 12:42:00,47.0,43.0,-100.00,SE,133,1.0,7.0,86,0.00,,,0.00,112.000000,,2013-09-19 20:42:00,
2013-09-19 12:52:00,47.0,43.0,-100.00,SE,133,1.0,7.0,86,0.00,,,0.00,112.000000,,2013-09-19 20:52:00,
2013-09-19 13:22:00,48.0,41.0,-100.00,North,6,0.0,4.0,78,0.02,,,0.02,188.000000,,2013-09-19 21:22:00,
2013-09-19 13:34:00,48.0,41.0,-100.00,North,6,0.0,4.0,78,0.02,,,0.02,188.000000,,2013-09-19 21:34:00,
2013-09-19 13:44:00,48.0,41.0,-100.00,North,6,0.0,4.0,78,0.02,,,0.02,188.000000,,2013-09-19 21:44:00,
2013-09-19 13:55:00,48.0,41.0,-100.00,North,6,0.0,4.0,78,0.02,,,0.02,188.000000,,2013-09-19 21:55:00,
2013-09-19 14:24:00,48.0,45.0,-100.00,West,280,1.0,4.0,91,0.02,,,0.04,141.000000,,2013-09-19 22:24:00,
2013-09-19 14:33:00,48.0,45.0,-100.00,West,280,1.0,4.0,91,0.02,,,0.04,141.000000,,2013-09-19 22:33:00,
2013-09-19 14:42:00,48.0,45.0,-100.00,West,280,1.0,4.0,91,0.02,,,0.04,141.000000,,2013-09-19 22:42:00,
2013-09-19 14:53:00,48.0,45.0,-100.00,West,280,1.0,4.0,91,0.02,,,0.04,141.000000,,2013-09-19 22:53:00,
2013-09-19 15:22:00,49.0,44.0,-100.00,NW,305,1.0,4.0,84,0.00,,,0.04,132.000000,,2013-09-19 23:22:00,
2013-09-19 15:33:00,49.0,44.0,-100.00,NW,305,1.0,4.0,84,0.00,,,0.04,132.000000,,2013-09-19 23:33:00,
2013-09-19 15:42:00,49.0,44.0,-100.00,NW,305,1.0,4.0,84,0.00,,,0.04,132.000000,,2013-09-19 23:42:00,
2013-09-19 15:53:00,49.0,44.0,-100.00,NW,305,1.0,4.0,84,0.00,,,0.04,132.000000,,2013-09-19 23:53:00,
2013-09-19 16:21:00,48.0,40.0,-100.00,NW,312,1.0,6.0,75,0.00,,,0.04,200.000000,,2013-09-20 00:21:00,
2013-09-19 16:32:00,48.0,40.0,-100.00,NW,312,1.0,6.0,75,0.00,,,0.04,200.000000,,2013-09-20 00:32:00,
2013-09-19 16:42:00,48.0,40.0,-100.00,NW,312,1.0,6.0,75,0.00,,,0.04,200.000000,,2013-09-20 00:42:00,
2013-09-19 16:52:00,48.0,40.0,-100.00,NW,312,1.0,6.0,75,0.00,,,0.04,200.000000,,2013-09-20 00:52:00,
2013-09-19 17:22:00,47.0,40.0,-100.00,NW,315,1.0,6.0,77,0.00,,,0.04,86.000000,,2013-09-20 01:22:00,
2013-09-19 17:32:00,47.0,40.0,-100.00,NW,315,1.0,6.0,77,0.00,,,0.04,86.000000,,2013-09-20 01:32:00,
2013-09-19 17:42:00,47.0,40.0,-100.00,NW,315,1.0,6.0,77,0.00,,,0.04,86.000000,,2013-09-20 01:42:00,
2013-09-19 17:52:00,47.0,40.0,-100.00,NW,315,1.0,6.0,77,0.00,,,0.04,86.000000,,2013-09-20 01:52:00,
2013-09-19 18:22:00,47.0,37.0,-100.00,NW,325,2.0,6.0,68,0.00,,,0.04,76.000000,,2013-09-20 02:22:00,
2013-09-19 18:32:00,47.0,37.0,-100.00,NW,325,2.0,6.0,68,0.00,,,0.04,76.000000,,2013-09-20 02:32:00,
2013-09-19 18:42:00,47.0,37.0,-100.00,NW,325,2.0,6.0,68,0.00,,,0.04,76.000000,,2013-09-20 02:42:00,
2013-09-19 18:52:00,47.0,37.0,-100.00,NW,325,2.0,6.0,68,0.00,,,0.04,76.000000,,2013-09-20 02:52:00,
2013-09-19 19:23:00,46.0,36.0,-100.00,NNW,332,1.0,7.0,67,0.00,,,0.04,35.000000,,2013-09-20 03:23:00,
2013-09-19 19:34:00,46.0,36.0,-100.00,NNW,332,1.0,7.0,67,0.00,,,0.04,35.000000,,2013-09-20 03:34:00,
2013-09-19 19:45:00,46.0,36.0,-100.00,NNW,332,1.0,7.0,67,0.00,,,0.04,35.000000,,2013-09-20 03:45:00,
2013-09-19 19:55:00,46.0,36.0,-100.00,NNW,332,1.0,7.0,67,0.00,,,0.04,35.000000,,2013-09-20 03:55:00,
2013-09-19 20:24:00,42.0,29.0,-100.00,ENE,59,0.0,7.0,59,0.00,,,0.04,12.000000,,2013-09-20 04:24:00,
2013-09-19 20:34:00,42.0,29.0,-100.00,ENE,59,0.0,7.0,59,0.00,,,0.04,12.000000,,2013-09-20 04:34:00,
2013-09-19 20:44:00,42.0,29.0,-100.00,ENE,59,0.0,7.0,59,0.00,,,0.04,12.000000,,2013-09-20 04:44:00,
2013-09-19 20:53:00,42.0,29.0,-100.00,ENE,59,0.0,7.0,59,0.00,,,0.04,12.000000,,2013-09-20 04:53:00,
2013-09-19 21:23:00,39.0,28.0,-100.00,NNE,29,0.0,10.0,65,0.00,,,0.04,2.000000,,2013-09-20 05:23:00,
2013-09-19 21:34:00,39.0,28.0,-100.00,NNE,29,0.0,10.0,65,0.00,,,0.04,2.000000,,2013-09-20 05:34:00,
2013-09-19 21:43:00,39.0,28.0,-100.00,NNE,29,0.0,10.0,65,0.00,,,0.04,2.000000,,2013-09-20 05:43:00,
2013-09-19 21:53:00,39.0,28.0,-100.00,NNE,29,0.0,10.0,65,0.00,,,0.04,2.000000,,2013-09-20 05:53:00,
2013-09-19 22:22:00,33.0,31.0,-100.00,East,95,1.0,1.0,92,0.00,,,0.04,0.000000,,2013-09-20 06:22:00,
2013-09-19 22:33:00,33.0,31.0,-100.00,East,95,1.0,1.0,92,0.00,,,0.04,0.000000,,2013-09-20 06:33:00,
2013-09-19 22:42:00,33.0,31.0,-100.00,East,95,1.0,1.0,92,0.00,,,0.04,0.000000,,2013-09-20 06:42:00,
2013-09-19 22:52:00,33.0,31.0,-100.00,East,95,1.0,1.0,92,0.00,,,0.04,0.000000,,2013-09-20 06:52:00,
2013-09-19 23:22:00,31.0,30.0,-100.00,NE,55,0.0,3.0,95,0.00,,,0.04,0.000000,,2013-09-20 07:22:00,
2013-09-19 23:32:00,31.0,30.0,-100.00,NE,55,0.0,3.0,95,0.00,,,0.04,0.000000,,2013-09-20 07:32:00,